AZA76 LIRF-LEBL

Flight info

Callsign AZA76
Flight time 1h 25m
Altitude 33000
Route ESINO DCT ABIDU DCT EPIKU DCT GINOX DCT KIFMI DCT ELVOP DCT MUREN DCT CHELY DCT VERSO
Aircraft A320/M-SDE3FGHIRWXY/S

Departure

Time 2026-05-04 04:29
Airport Rome–Fiumicino Leonardo da Vinci International Airport (LIRF)

Arrival

Time 2026-05-04 05:54
Airport Josep Tarradellas Barcelona-El Prat Airport (LEBL)
Time Latitude Longitude Altitude Speed Heading
2026-05-04 03:59 41.79719 12.25483 14 ft 0 kts 115°
2026-05-04 04:10 41.79725 12.25464 16 ft 4 kts 115°
2026-05-04 04:10 41.79736 12.25433 14 ft 4 kts 91°
2026-05-04 04:11 41.79728 12.25406 14 ft 4 kts 31°
2026-05-04 04:11 41.79730 12.25406 14 ft 4 kts 25°
2026-05-04 04:11 41.79755 12.25422 14 ft 4 kts 25°
2026-05-04 04:11 41.79779 12.25437 15 ft 4 kts 25°
2026-05-04 04:12 41.79787 12.25442 14 ft 0 kts 25°
2026-05-04 04:15 41.79788 12.25442 14 ft 0 kts 25°
2026-05-04 04:16 41.79812 12.25458 14 ft 14 kts 25°
2026-05-04 04:16 41.79942 12.25539 16 ft 19 kts 21°
2026-05-04 04:16 41.80033 12.25513 16 ft 15 kts 294°
2026-05-04 04:16 41.80078 12.25387 16 ft 15 kts 302°
2026-05-04 04:17 41.80173 12.25389 16 ft 17 kts 20°
2026-05-04 04:17 41.80295 12.25452 16 ft 20 kts 26°
2026-05-04 04:17 41.80356 12.25611 15 ft 22 kts 70°
2026-05-04 04:17 41.80413 12.25822 15 ft 26 kts 70°
2026-05-04 04:18 41.80482 12.26067 15 ft 30 kts 69°
2026-05-04 04:18 41.80557 12.26337 16 ft 33 kts 72°
2026-05-04 04:18 41.80637 12.26635 17 ft 35 kts 69°
2026-05-04 04:18 41.80721 12.26935 14 ft 30 kts 69°
2026-05-04 04:19 41.80839 12.27048 13 ft 22 kts 317°
2026-05-04 04:19 41.80957 12.26949 12 ft 14 kts 295°
2026-05-04 04:19 41.80939 12.26878 13 ft 9 kts 250°
2026-05-04 04:19 41.80905 12.26756 15 ft 25 kts 249°
2026-05-04 04:20 41.80877 12.26657 16 ft 36 kts 249°
2026-05-04 04:20 41.80765 12.26252 19 ft 55 kts 250°
2026-05-04 04:20 41.80654 12.25845 17 ft 35 kts 250°
2026-05-04 04:20 41.80571 12.25538 16 ft 34 kts 250°
2026-05-04 04:21 41.80512 12.25318 17 ft 7 kts 250°
2026-05-04 04:21 41.80502 12.25281 17 ft 0 kts 250°
2026-05-04 04:21 41.80500 12.25273 18 ft 6 kts 250°
2026-05-04 04:21 41.80472 12.25164 17 ft 17 kts 250°
2026-05-04 04:22 41.80433 12.25026 16 ft 17 kts 249°
2026-05-04 04:22 41.80359 12.24759 16 ft 39 kts 247°
2026-05-04 04:22 41.80278 12.24719 14 ft 10 kts 125°
2026-05-04 04:22 41.80200 12.24790 14 ft 17 kts 118°
2026-05-04 04:23 41.80207 12.24967 13 ft 21 kts 94°
2026-05-04 04:23 41.80235 12.25178 15 ft 25 kts 69°
2026-05-04 04:23 41.80301 12.25412 15 ft 28 kts 69°
2026-05-04 04:23 41.80375 12.25670 17 ft 31 kts 69°
2026-05-04 04:24 41.80459 12.25954 15 ft 34 kts 68°
2026-05-04 04:24 41.80534 12.26227 17 ft 31 kts 71°
2026-05-04 04:24 41.80577 12.26395 18 ft 0 kts 71°
2026-05-04 04:26 41.80584 12.26422 16 ft 6 kts 71°
2026-05-04 04:27 41.80604 12.26500 17 ft 12 kts 71°
2026-05-04 04:27 41.80635 12.26624 17 ft 16 kts 71°
2026-05-04 04:27 41.80678 12.26791 15 ft 22 kts 71°
2026-05-04 04:27 41.80735 12.27001 16 ft 26 kts 70°
2026-05-04 04:28 41.80823 12.27134 13 ft 18 kts 358°
2026-05-04 04:28 41.80952 12.27071 14 ft 21 kts 341°
2026-05-04 04:28 41.80969 12.26960 13 ft 6 kts 248°
2026-05-04 04:28 41.80945 12.26879 15 ft 32 kts 248°
2026-05-04 04:29 41.80785 12.26293 21 ft 99 kts 250°
2026-05-04 04:29 41.80479 12.25171 16 ft 155 kts 250°
2026-05-04 04:29 41.80079 12.23703 353 ft 171 kts 250°
2026-05-04 04:29 41.79812 12.22701 752 ft 173 kts 251°
2026-05-04 04:30 41.79378 12.20580 1480 ft 187 kts 264°
2026-05-04 04:30 41.79391 12.19367 1621 ft 206 kts 278°
2026-05-04 04:30 41.79755 12.17458 2125 ft 222 kts 275°
2026-05-04 04:30 41.79621 12.15342 2577 ft 230 kts 244°
2026-05-04 04:31 41.78649 12.13799 3143 ft 213 kts 210°
2026-05-04 04:31 41.77390 12.12817 3987 ft 209 kts 210°
2026-05-04 04:31 41.76147 12.11609 4339 ft 233 kts 219°
2026-05-04 04:31 41.74884 12.10083 4713 ft 254 kts 222°
2026-05-04 04:32 41.73588 12.08417 5433 ft 261 kts 223°
2026-05-04 04:32 41.72273 12.06709 6240 ft 265 kts 223°
2026-05-04 04:32 41.70856 12.05126 7013 ft 267 kts 208°
2026-05-04 04:32 41.69082 12.04387 7739 ft 271 kts 184°
2026-05-04 04:33 41.67184 12.04343 8484 ft 274 kts 180°
2026-05-04 04:33 41.65373 12.04341 9199 ft 278 kts 181°
2026-05-04 04:33 41.64916 12.04341 9376 ft 279 kts 181°
2026-05-04 04:34 41.62973 12.04209 9868 ft 282 kts 192°
2026-05-04 04:34 41.61139 12.03293 10651 ft 284 kts 210°
2026-05-04 04:34 41.59540 12.01711 11495 ft 287 kts 218°
2026-05-04 04:34 41.57965 12.00031 12173 ft 292 kts 218°
2026-05-04 04:35 41.56346 11.98312 12557 ft 308 kts 218°
2026-05-04 04:35 41.54607 11.96472 12704 ft 330 kts 218°
2026-05-04 04:35 41.52774 11.94539 13126 ft 340 kts 218°
2026-05-04 04:35 41.50902 11.92564 13743 ft 345 kts 218°
2026-05-04 04:36 41.49005 11.90563 14331 ft 350 kts 218°
2026-05-04 04:36 41.47091 11.88544 14927 ft 353 kts 218°
2026-05-04 04:36 41.45160 11.86512 15531 ft 355 kts 218°
2026-05-04 04:36 41.43209 11.84458 16089 ft 359 kts 218°
2026-05-04 04:37 41.37976 11.77154 17683 ft 374 kts 242°
2026-05-04 04:37 41.36967 11.73949 18270 ft 377 kts 249°
2026-05-04 04:38 41.36084 11.70650 18769 ft 380 kts 250°
2026-05-04 04:38 41.35186 11.67328 19298 ft 382 kts 249°
2026-05-04 04:38 41.34285 11.64018 19940 ft 380 kts 249°
2026-05-04 04:38 41.33381 11.60704 20491 ft 382 kts 249°
2026-05-04 04:39 41.32472 11.57372 20980 ft 385 kts 250°
2026-05-04 04:39 41.31557 11.54024 21501 ft 386 kts 250°
2026-05-04 04:39 41.30636 11.50656 22038 ft 388 kts 250°
2026-05-04 04:39 41.29711 11.47273 22506 ft 391 kts 250°
2026-05-04 04:40 41.28788 11.43900 22949 ft 394 kts 250°
2026-05-04 04:40 41.27847 11.40468 23418 ft 397 kts 250°
2026-05-04 04:40 41.26896 11.37009 23844 ft 399 kts 250°
2026-05-04 04:40 41.25938 11.33531 24219 ft 402 kts 250°
2026-05-04 04:41 41.24976 11.30042 24604 ft 403 kts 250°
2026-05-04 04:41 41.24007 11.26536 25007 ft 404 kts 250°
2026-05-04 04:41 41.23035 11.23031 25387 ft 405 kts 250°
2026-05-04 04:41 41.22061 11.19512 25754 ft 406 kts 250°
2026-05-04 04:42 41.21083 11.15983 26121 ft 407 kts 250°
2026-05-04 04:42 41.20104 11.12453 26477 ft 409 kts 250°
2026-05-04 04:42 41.19120 11.08902 26828 ft 410 kts 250°
2026-05-04 04:42 41.18135 11.05346 27169 ft 412 kts 250°
2026-05-04 04:43 41.17144 11.01774 27509 ft 413 kts 250°
2026-05-04 04:43 41.16147 10.98195 27837 ft 414 kts 250°
2026-05-04 04:43 41.15142 10.94604 28159 ft 416 kts 250°
2026-05-04 04:43 41.14131 10.91002 28469 ft 417 kts 250°
2026-05-04 04:44 41.13118 10.87389 28784 ft 419 kts 250°
2026-05-04 04:44 41.12098 10.83763 29074 ft 420 kts 250°
2026-05-04 04:44 41.11074 10.80135 29368 ft 422 kts 250°
2026-05-04 04:44 41.10044 10.76484 29653 ft 423 kts 250°
2026-05-04 04:45 41.09013 10.72824 29930 ft 424 kts 250°
2026-05-04 04:45 41.07981 10.69154 30186 ft 426 kts 250°
2026-05-04 04:45 41.06947 10.65473 30418 ft 427 kts 250°
2026-05-04 04:47 41.00699 10.43510 32090 ft 421 kts 250°
2026-05-04 04:47 40.99668 10.39887 32410 ft 419 kts 252°
2026-05-04 04:47 40.98921 10.36180 32736 ft 416 kts 261°
2026-05-04 04:47 40.98624 10.32381 33040 ft 414 kts 266°
2026-05-04 04:48 40.98449 10.28589 33122 ft 409 kts 266°
2026-05-04 04:49 40.97537 10.10172 33119 ft 399 kts 266°
2026-05-04 04:49 40.97166 10.02845 33120 ft 399 kts 266°
2026-05-04 04:50 40.96783 9.95520 33110 ft 399 kts 266°
2026-05-04 04:50 40.96397 9.88201 33101 ft 399 kts 266°
2026-05-04 04:51 40.96009 9.80890 33095 ft 398 kts 266°
2026-05-04 04:51 40.95620 9.73592 33095 ft 397 kts 266°
2026-05-04 04:52 40.95228 9.66305 33090 ft 397 kts 266°
2026-05-04 04:52 40.94830 9.59033 33074 ft 396 kts 266°
2026-05-04 04:53 40.94430 9.51777 33077 ft 395 kts 266°
2026-05-04 04:53 40.94029 9.44540 33092 ft 394 kts 266°
2026-05-04 04:54 40.93620 9.37315 33119 ft 393 kts 266°
2026-05-04 04:54 40.93207 9.30159 33116 ft 393 kts 266°
2026-05-04 04:55 40.92788 9.22959 33109 ft 392 kts 266°
2026-05-04 04:55 40.92366 9.15765 33104 ft 392 kts 266°
2026-05-04 04:56 40.91943 9.08572 33112 ft 392 kts 265°
2026-05-04 04:56 40.91516 9.01405 33121 ft 390 kts 265°
2026-05-04 04:57 40.91089 8.94264 33124 ft 389 kts 265°
2026-05-04 04:57 40.90655 8.87143 33113 ft 388 kts 265°
2026-05-04 04:58 40.90218 8.80032 33110 ft 388 kts 265°
2026-05-04 04:58 40.89774 8.72933 33101 ft 387 kts 265°
2026-05-04 04:59 40.89323 8.65840 33104 ft 387 kts 265°
2026-05-04 04:59 40.88869 8.58758 33097 ft 387 kts 265°
2026-05-04 05:00 40.88419 8.51727 33093 ft 387 kts 265°
2026-05-04 05:01 40.87732 8.41111 33086 ft 386 kts 265°
2026-05-04 05:01 40.87270 8.34040 33090 ft 386 kts 264°
2026-05-04 05:02 40.86799 8.26971 33093 ft 386 kts 264°
2026-05-04 05:02 40.86321 8.19920 33092 ft 385 kts 264°
2026-05-04 05:03 40.85847 8.12878 33088 ft 385 kts 264°
2026-05-04 05:04 40.86298 7.98755 33082 ft 385 kts 272°
2026-05-04 05:04 40.86749 7.91701 33095 ft 385 kts 274°
2026-05-04 05:06 40.88731 7.63586 33076 ft 385 kts 273°
2026-05-04 05:07 40.89194 7.56546 33092 ft 385 kts 273°
2026-05-04 05:07 40.89655 7.49496 33072 ft 385 kts 273°
2026-05-04 05:09 40.91703 7.17716 33066 ft 386 kts 273°
2026-05-04 05:10 40.92142 7.10636 33066 ft 386 kts 273°
2026-05-04 05:10 40.92581 7.03551 33069 ft 386 kts 273°
2026-05-04 05:11 40.93012 6.96517 33064 ft 386 kts 273°
2026-05-04 05:11 40.93435 6.89447 33062 ft 386 kts 273°
2026-05-04 05:12 40.93858 6.82375 33071 ft 386 kts 273°
2026-05-04 05:12 40.94277 6.75301 33059 ft 386 kts 273°
2026-05-04 05:13 40.94694 6.68227 33050 ft 386 kts 273°
2026-05-04 05:13 40.95108 6.61149 33045 ft 386 kts 273°
2026-05-04 05:14 40.95510 6.54070 33042 ft 386 kts 272°
2026-05-04 05:14 40.95912 6.46986 33041 ft 386 kts 273°
2026-05-04 05:15 40.96310 6.39900 33040 ft 386 kts 272°
2026-05-04 05:15 40.96708 6.32811 33038 ft 386 kts 272°
2026-05-04 05:16 40.97100 6.25724 33039 ft 386 kts 272°
2026-05-04 05:16 40.97481 6.18634 33030 ft 386 kts 272°
2026-05-04 05:17 40.97865 6.11547 33029 ft 386 kts 272°
2026-05-04 05:17 40.98246 6.04458 33032 ft 386 kts 272°
2026-05-04 05:18 40.98623 5.97362 33028 ft 387 kts 272°
2026-05-04 05:18 40.98992 5.90302 33018 ft 387 kts 272°
2026-05-04 05:19 40.99357 5.83202 33017 ft 387 kts 272°
2026-05-04 05:19 40.99714 5.76097 33014 ft 387 kts 272°
2026-05-04 05:20 41.00069 5.68987 33022 ft 387 kts 272°
2026-05-04 05:20 41.00415 5.61875 33015 ft 387 kts 272°
2026-05-04 05:21 41.00763 5.54753 33010 ft 388 kts 272°
2026-05-04 05:21 41.01111 5.47629 33005 ft 388 kts 272°
2026-05-04 05:22 41.01451 5.40502 33009 ft 388 kts 271°
2026-05-04 05:22 41.01797 5.33373 33008 ft 388 kts 272°
2026-05-04 05:23 41.02109 5.27439 33020 ft 389 kts 272°
2026-05-04 05:23 41.02495 5.20300 33011 ft 389 kts 272°
2026-05-04 05:24 41.02869 5.13154 33001 ft 389 kts 272°
2026-05-04 05:24 41.03232 5.06009 33011 ft 389 kts 272°
2026-05-04 05:25 41.03589 4.98868 32998 ft 389 kts 271°
2026-05-04 05:25 41.03936 4.91729 33008 ft 388 kts 271°
2026-05-04 05:26 41.04278 4.84640 33001 ft 388 kts 271°
2026-05-04 05:26 41.04619 4.77507 32967 ft 388 kts 272°
2026-05-04 05:27 41.04872 4.73970 32696 ft 383 kts 274°
2026-05-04 05:28 41.07575 4.49910 30712 ft 370 kts 274°
2026-05-04 05:29 41.07939 4.46548 30220 ft 367 kts 274°
2026-05-04 05:29 41.08295 4.43207 29678 ft 365 kts 274°
2026-05-04 05:29 41.08646 4.39897 29189 ft 361 kts 274°
2026-05-04 05:29 41.08992 4.36618 28719 ft 357 kts 274°
2026-05-04 05:31 41.11316 4.14535 25705 ft 335 kts 274°
2026-05-04 05:31 41.11633 4.11490 25270 ft 332 kts 274°
2026-05-04 05:32 41.11947 4.08467 24858 ft 330 kts 274°
2026-05-04 05:32 41.12261 4.05460 24422 ft 328 kts 274°
2026-05-04 05:32 41.12565 4.02508 24000 ft 326 kts 274°
2026-05-04 05:33 41.13175 3.96567 23070 ft 324 kts 274°
2026-05-04 05:33 41.13478 3.93621 22630 ft 321 kts 274°
2026-05-04 05:33 41.13778 3.90696 22197 ft 319 kts 274°
2026-05-04 05:33 41.14076 3.87797 21763 ft 317 kts 274°
2026-05-04 05:34 41.14370 3.84909 21336 ft 315 kts 274°
2026-05-04 05:34 41.14661 3.82038 20922 ft 313 kts 275°
2026-05-04 05:34 41.14950 3.79183 20510 ft 312 kts 274°
2026-05-04 05:34 41.15236 3.76331 20080 ft 311 kts 274°
2026-05-04 05:35 41.15522 3.73478 19702 ft 315 kts 274°
2026-05-04 05:35 41.15813 3.70582 19339 ft 317 kts 274°
2026-05-04 05:35 41.16006 3.68661 19098 ft 317 kts 275°
2026-05-04 05:35 41.16397 3.64789 18609 ft 316 kts 275°
2026-05-04 05:36 41.16686 3.61908 18238 ft 314 kts 275°
2026-05-04 05:36 41.16971 3.59040 17840 ft 313 kts 275°
2026-05-04 05:36 41.17253 3.56186 17476 ft 311 kts 275°
2026-05-04 05:36 41.17534 3.53341 17116 ft 310 kts 275°
2026-05-04 05:37 41.17813 3.50507 16756 ft 309 kts 274°
2026-05-04 05:37 41.18091 3.47683 16402 ft 308 kts 274°
2026-05-04 05:37 41.18367 3.44869 16045 ft 307 kts 274°
2026-05-04 05:38 41.18916 3.39262 15336 ft 305 kts 274°
2026-05-04 05:38 41.19098 3.37415 15104 ft 305 kts 274°
2026-05-04 05:38 41.19462 3.33693 14636 ft 303 kts 274°
2026-05-04 05:38 41.19732 3.30919 14286 ft 302 kts 274°
2026-05-04 05:39 41.19819 3.30018 14170 ft 302 kts 274°
2026-05-04 05:39 41.20522 3.22679 13210 ft 300 kts 274°
2026-05-04 05:39 41.20784 3.19933 12862 ft 299 kts 275°
2026-05-04 05:40 41.21303 3.14425 12161 ft 298 kts 274°
2026-05-04 05:40 41.21543 3.11735 11823 ft 297 kts 274°
2026-05-04 05:40 41.21784 3.09012 11480 ft 296 kts 274°
2026-05-04 05:41 41.22022 3.06294 11132 ft 296 kts 274°
2026-05-04 05:41 41.22257 3.03587 10797 ft 294 kts 275°
2026-05-04 05:41 41.22490 3.00894 10453 ft 292 kts 275°
2026-05-04 05:41 41.22723 2.98217 10116 ft 291 kts 275°
2026-05-04 05:42 41.22953 2.95586 9929 ft 282 kts 275°
2026-05-04 05:42 41.23178 2.93020 9845 ft 279 kts 275°
2026-05-04 05:42 41.23401 2.90462 9782 ft 279 kts 275°
2026-05-04 05:42 41.23626 2.87904 9707 ft 279 kts 275°
2026-05-04 05:43 41.23850 2.85341 9600 ft 279 kts 275°
2026-05-04 05:43 41.24071 2.82788 9514 ft 278 kts 275°
2026-05-04 05:43 41.24292 2.80235 9419 ft 278 kts 275°
2026-05-04 05:45 41.25649 2.62463 8130 ft 276 kts 289°
2026-05-04 05:45 41.26569 2.60233 7434 ft 277 kts 298°
2026-05-04 05:47 41.33065 2.44797 4298 ft 265 kts 296°
2026-05-04 05:47 41.33932 2.42696 4141 ft 253 kts 296°
2026-05-04 05:47 41.34758 2.40696 4017 ft 240 kts 296°
2026-05-04 05:48 41.35541 2.38802 3924 ft 229 kts 296°
2026-05-04 05:48 41.36299 2.36960 3829 ft 226 kts 295°
2026-05-04 05:48 41.37050 2.35130 3731 ft 225 kts 295°
2026-05-04 05:48 41.37681 2.33258 3632 ft 217 kts 279°
2026-05-04 05:49 41.37672 2.31332 3466 ft 206 kts 253°
2026-05-04 05:49 41.37130 2.29579 3156 ft 205 kts 244°
2026-05-04 05:49 41.36928 2.29000 3061 ft 205 kts 245°
2026-05-04 05:49 41.35945 2.26139 2592 ft 204 kts 245°
2026-05-04 05:51 41.32471 2.15939 961 ft 155 kts 245°
2026-05-04 05:51 41.32011 2.14594 739 ft 156 kts 246°
2026-05-04 05:52 41.31568 2.13317 491 ft 148 kts 246°
2026-05-04 05:52 41.31153 2.12111 304 ft 144 kts 247°
2026-05-04 05:52 41.30744 2.10909 143 ft 142 kts 247°
2026-05-04 05:52 41.30340 2.09721 36 ft 140 kts 247°
2026-05-04 05:53 41.30001 2.08672 23 ft 102 kts 245°
2026-05-04 05:54 41.29236 2.07619 18 ft 5 kts 155°
2026-05-04 05:55 41.29209 2.07635 19 ft 4 kts 155°
2026-05-04 05:55 41.29190 2.07646 19 ft 2 kts 155°
2026-05-04 05:55 41.29166 2.07661 19 ft 6 kts 154°
2026-05-04 05:55 41.29127 2.07713 19 ft 10 kts 154°
2026-05-04 05:56 41.29079 2.07741 20 ft 1 kts 155°
2026-05-04 05:56 41.29078 2.07741 20 ft 0 kts 155°